Location: Binningen
(47.7924°N, 8.7261°E)
Time: 02:51:00
(UTC+00:00)

SWARM A - Pass Details

Date: 17 May 2021
Orbit: 427 x 432 km, 87.4° (Epoch: 14 June)

Event Time Altitude Azimuth Distance (km) Brightness Sun altitude
Rises 19:43:17 0° 2° (N) 2,413 8.6 -6.9°
Reaches altitude 10° 19:45:23 10° 8° (N) 1,539 7.5 -7.1°
Maximum altitude 19:48:38 50° 85° (E) 553 4.5 -7.6°
Drops below altitude 10° 19:51:51 10° 163° (SSE) 1,522 6.5 -8.0°
Enters shadow 19:52:24 - 165° (SSE) 1,751 6.8 -8.0°
